CW6391 Weather Reports


Display with metric or nautical units.
time (UTC)temp
F
wind
direction
speed
MPH
gust
MPH
rain 1hr
in
rain 24hr
in
rain mn
in
humidity
%
barometer
mb
20260509132201 67 327 1.0 7.0 0.00 0.00 0.00 42 1016.7
20260509131701 68 14 3.0 6.0 0.00 0.00 0.00 40 1016.7
20260509131201 69 326 2.0 5.0 0.00 0.00 0.00 39 1016.7
20260509130701 69 299 1.0 5.0 0.00 0.00 0.00 41 1016.7
20260509130158 68 250 1.0 5.0 0.00 0.00 0.00 40 1016.7
20260509125658 68 318 3.0 6.0 0.00 0.00 0.00 40 1016.7
20260509125158 68 321 3.0 6.0 0.00 0.00 0.00 41 1016.7
20260509124701 68 331 3.0 6.0 0.00 0.00 0.00 40 1016.7
20260509124158 67 333 3.0 9.0 0.00 0.00 0.00 40 1017.1
20260509123658 68 346 1.0 5.0 0.00 0.00 0.00 40 1017.1
20260509123158 68 351 1.0 5.0 0.00 0.00 0.00 41 1017.1
20260509122658 68 3 1.0 5.0 0.00 0.00 0.00 39 1017.1
20260509122158 71 79 1.0 6.0 0.00 0.00 0.00 36 1017.1
20260509121658 71 36 2.0 6.0 0.00 0.00 0.00 36 1017.1
20260509121201 71 143 0.0 5.0 0.00 0.00 0.00 37 1017.1
20260509120701 70 118 2.0 6.0 0.00 0.00 0.00 38 1017.4
20260509120158 70 111 3.0 6.0 0.00 0.00 0.00 38 1017.4
20260509115658 69 191 0.0 3.0 0.00 0.00 0.00 39 1017.4
20260509115204 68 347 1.0 3.0 0.00 0.00 0.00 40 1017.4
20260509114701 68 124 1.0 4.0 0.00 0.00 0.00 42 1017.4
20260509114201 67 180 1.0 2.0 0.00 0.00 0.00 42 1017.4
20260509113658 66 335 0.0 4.0 0.00 0.00 0.00 42 1017.4
20260509113201 67 318 2.0 4.0 0.00 0.00 0.00 41 1017.4
20260509112658 67 184 0.0 3.0 0.00 0.00 0.00 44 1017.4
20260509112158 65 340 1.0 5.0 0.00 0.00 0.00 43 1017.7
20260509111658 67 256 1.0 4.0 0.00 0.00 0.00 42 1017.7
20260509111158 68 103 1.0 3.0 0.00 0.00 0.00 41 1017.7
20260509110707 68 63 1.0 5.0 0.00 0.00 0.00 40 1017.7
20260509110158 67 118 1.0 5.0 0.00 0.00 0.00 42 1017.7
20260509105701 67 173 2.0 4.0 0.00 0.00 0.00 41 1017.7
20260509105201 67 178 2.0 6.0 0.00 0.00 0.00 42 1017.7
20260509104701 66 130 1.0 6.0 0.00 0.00 0.00 44 1017.7
20260509104158 66 337 1.0 3.0 0.00 0.00 0.00 42 1017.7
20260509103701 67 266 0.0 3.0 0.00 0.00 0.00 42 1017.7
20260509103201 67 151 1.0 5.0 0.00 0.00 0.00 42 1017.7
20260509102658 67 108 2.0 4.0 0.00 0.00 0.00 40 1017.7
20260509102158 67 87 1.0 4.0 0.00 0.00 0.00 40 1018.1
20260509101658 66 0 1.0 8.0 0.00 0.00 0.00 40 1018.1
20260509101158 68 122 4.0 8.0 0.00 0.00 0.00 38 1018.1
20260509100701 68 120 2.0 8.0 0.00 0.00 0.00 38 1018.1
20260509100204 67 209 2.0 6.0 0.00 0.00 0.00 41 1018.1
20260509095658 66 179 2.0 6.0 0.00 0.00 0.00 41 1018.1
20260509095201 65 132 4.0 6.0 0.00 0.00 0.00 42 1018.1
20260509094707 65 76 0.0 5.0 0.00 0.00 0.00 46 1018.1
20260509094158 66 159 3.0 6.0 0.00 0.00 0.00 42 1018.1
20260509093701 67 98 1.0 4.0 0.00 0.00 0.00 44 1018.4
20260509093201 66 132 0.0 5.0 0.00 0.00 0.00 45 1018.1
20260509092704 64 110 3.0 6.0 0.00 0.00 0.00 47 1018.1
20260509092204 65 76 1.0 8.0 0.00 0.00 0.00 45 1018.1
20260509091707 63 176 1.0 5.0 0.00 0.00 0.00 51 1018.1
20260509091158 62 188 2.0 8.0 0.00 0.00 0.00 49 1018.4
20260509090701 64 139 3.0 8.0 0.00 0.00 0.00 49 1018.4
20260509090158 64 273 2.0 4.0 0.00 0.00 0.00 49 1018.4
20260509085701 63 192 2.0 4.0 0.00 0.00 0.00 50 1018.4
20260509085201 64 266 0.0 3.0 0.00 0.00 0.00 50 1018.4
20260509084658 63 218 1.0 3.0 0.00 0.00 0.00 52 1018.4
20260509084158 61 297 0.0 4.0 0.00 0.00 0.00 55 1018.4
20260509083704 62 165 1.0 2.0 0.00 0.00 0.00 54 1018.4
20260509083204 60 185 1.0 4.0 0.00 0.00 0.00 57 1018.4
20260509082701 59 117 1.0 4.0 0.00 0.00 0.00 57 1018.4
20260509082158 61 97 1.0 3.0 0.00 0.00 0.00 55 1018.4
20260509081658 59 17 2.0 4.0 0.00 0.00 0.00 56 1018.4
20260509081158 59 168 1.0 3.0 0.00 0.00 0.00 58 1018.4
20260509080701 57 197 1.0 5.0 0.00 0.00 0.00 59 1018.4
20260509080201 58 117 2.0 4.0 0.00 0.00 0.00 57 1018.4
20260509075658 58 24 2.0 4.0 0.00 0.00 0.00 57 1018.4
20260509075201 58 201 1.0 4.0 0.00 0.00 0.00 55 1018.4
20260509074701 59 116 1.0 2.0 0.00 0.00 0.00 57 1018.8
20260509074158 56 131 0.0 2.0 0.00 0.00 0.00 59 1018.8
20260509073701 56 196 1.0 2.0 0.00 0.00 0.00 59 1018.8
20260509073158 56 181 0.0 3.0 0.00 0.00 0.00 61 1018.8
20260509072701 56 163 2.0 3.0 0.00 0.00 0.00 59 1018.8
20260509072158 56 137 0.0 2.0 0.00 0.00 0.00 62 1018.8
20260509071658 53 197 0.0 2.0 0.00 0.00 0.00 68 1018.8
20260509071158 53 330 1.0 2.0 0.00 0.00 0.00 69 1018.8
20260509070701 51 336 1.0 2.0 0.00 0.00 0.00 74 1018.8
20260509070201 50 311 0.0 2.0 0.00 0.00 0.00 77 1018.8
20260509065701 49 265 0.0 2.0 0.00 0.00 0.00 79 1018.8
20260509065201 49 303 0.0 2.0 0.00 0.00 0.00 79 1018.8
20260509064658 49 301 1.0 2.0 0.00 0.00 0.00 79 1018.8
20260509064204 48 333 1.0 2.0 0.00 0.00 0.00 79 1018.8
20260509063658 48 315 1.0 2.0 0.00 0.00 0.00 79 1018.8
20260509063201 48 318 1.0 2.0 0.00 0.00 0.00 79 1018.8
20260509062701 48 306 0.0 2.0 0.00 0.00 0.00 80 1018.8
20260509062201 47 248 0.0 2.0 0.00 0.00 0.00 79 1018.8
20260509061701 47 264 1.0 3.0 0.00 0.00 0.00 79 1018.4
20260509061201 47 222 1.0 3.0 0.00 0.00 0.00 80 1018.4
20260509060658 47 258 0.0 1.0 0.00 0.00 0.00 80 1018.4
20260509060204 47 264 0.0 2.0 0.00 0.00 0.00 80 1018.4
20260509055701 47 308 1.0 2.0 0.00 0.00 0.00 79 1018.4
20260509055201 48 327 1.0 2.0 0.00 0.00 0.00 77 1018.4
20260509054658 48 256 0.0 2.0 0.00 0.00 0.00 77 1018.4
20260509054204 48 224 0.0 1.0 0.00 0.00 0.00 79 1018.4
20260509053701 47 301 0.0 2.0 0.00 0.00 0.00 80 1018.4
20260509053158 46 260 0.0 1.0 0.00 0.00 0.00 82 1018.4
20260509052704 46 322 0.0 1.0 0.00 0.00 0.00 84 1018.1
20260509052201 44 21 0.0 2.0 0.00 0.00 0.00 88 1018.1
20260509051658 44 282 1.0 2.0 0.00 0.00 0.00 88 1018.1
20260509051201 43 144 1.0 2.0 0.00 0.00 0.00 88 1018.1
20260509050658 43 87 0.0 2.0 0.00 0.00 0.00 90 1018.1
20260509050158 42 80 1.0 2.0 0.00 0.00 0.00 90 1018.1
20260509045658 42 74 1.0 2.0 0.00 0.00 0.00 90 1018.1
20260509045158 41 121 0.0 4.0 0.00 0.00 0.00 90 1018.1
20260509044658 41 165 1.0 4.0 0.00 0.00 0.00 90 1018.1
20260509044158 41 102 1.0 4.0 0.00 0.00 0.00 90 1018.1
20260509043658 41 105 1.0 3.0 0.00 0.00 0.00 90 1018.1
20260509043201 41 118 1.0 2.0 0.00 0.00 0.00 90 1018.1
20260509042658 41 107 0.0 2.0 0.00 0.00 0.00 90 1018.1
20260509042204 41 326 0.0 1.0 0.00 0.00 0.00 90 1018.1
20260509041707 41 208 0.0 1.0 0.00 0.00 0.00 90 1018.1
20260509041158 41 258 0.0 2.0 0.00 0.00 0.00 90 1018.1
20260509040704 41 307 0.0 2.0 0.00 0.00 0.00 90 1018.1
20260509040201 41 325 1.0 2.0 0.00 0.00 0.00 89 1018.1
20260509035658 41 310 1.0 2.0 0.00 0.00 0.00 89 1018.1
20260509035201 41 257 1.0 1.0 0.00 0.00 0.00 89 1018.1
20260509034658 41 268 1.0 2.0 0.00 0.00 0.00 89 1018.1
20260509034158 41 286 1.0 3.0 0.00 0.00 0.00 89 1018.1
20260509033658 41 276 1.0 2.0 0.00 0.00 0.00 89 1017.7
20260509033158 41 264 0.0 3.0 0.00 0.00 0.00 89 1017.7
20260509032701 41 308 1.0 4.0 0.00 0.00 0.00 88 1018.1
20260509032158 42 286 1.0 4.0 0.00 0.00 0.00 88 1017.7
20260509031704 42 268 1.0 2.0 0.00 0.00 0.00 88 1017.7
20260509031201 41 263 0.0 2.0 0.00 0.00 0.00 88 1017.7
20260509030658 41 265 1.0 2.0 0.00 0.00 0.00 88 1017.7
20260509030158 42 245 1.0 2.0 0.00 0.00 0.00 88 1018.1
20260509025658 42 255 1.0 2.0 0.00 0.00 0.00 89 1018.1
20260509025158 42 241 1.0 2.0 0.00 0.00 0.00 89 1018.1
20260509024658 42 270 1.0 2.0 0.00 0.00 0.00 89 1018.1
20260509024204 42 303 0.0 2.0 0.00 0.00 0.00 88 1018.1
20260509023704 42 307 0.0 2.0 0.00 0.00 0.00 89 1018.1
20260509023158 42 234 0.0 2.0 0.00 0.00 0.00 89 1018.1
20260509022658 42 294 0.0 1.0 0.00 0.00 0.00 89 1018.1
20260509022158 42 291 1.0 1.0 0.00 0.00 0.00 89 1018.1
20260509021704 42 290 1.0 1.0 0.00 0.00 0.00 89 1018.1
20260509021158 42 264 0.0 1.0 0.00 0.00 0.00 88 1018.1
20260509020658 42 297 0.0 2.0 0.00 0.00 0.00 89 1018.1
20260509020201 42 274 1.0 1.0 0.00 0.00 0.00 89 1018.1
20260509015701 42 305 0.0 1.0 0.00 0.00 0.00 89 1018.1
20260509015201 42 273 0.0 1.0 0.00 0.00 0.00 88 1018.1
20260509014707 42 305 0.0 1.0 0.00 0.00 0.00 88 1018.1
20260509014204 42 278 0.0 2.0 0.00 0.00 0.00 88 1018.1
20260509013701 42 283 0.0 2.0 0.00 0.00 0.00 88 1018.1
20260509013201 43 193 0.0 3.0 0.00 0.00 0.00 88 1018.1
20260509012701 43 288 1.0 2.0 0.00 0.00 0.00 89 1018.1
20260509012204 43 258 1.0 2.0 0.00 0.00 0.00 88 1018.1
20260509011658 43 285 0.0 1.0 0.00 0.00 0.00 88 1018.1
20260509011201 43 296 0.0 2.0 0.00 0.00 0.00 88 1018.1
20260509010701 43 296 1.0 2.0 0.00 0.00 0.00 88 1018.1
20260509010201 43 258 0.0 2.0 0.00 0.00 0.00 88 1018.1
20260509005658 43 282 0.0 1.0 0.00 0.00 0.00 88 1018.1
20260509005158 44 287 0.0 2.0 0.00 0.00 0.00 88 1018.1
20260509004701 44 303 1.0 2.0 0.00 0.00 0.00 88 1018.1
20260509004207 44 324 0.0 1.0 0.00 0.00 0.00 88 1018.1
20260509003707 44 284 0.0 1.0 0.00 0.00 0.00 88 1018.1
20260509003158 44 290 1.0 1.0 0.00 0.00 0.00 88 1018.1
20260509002658 44 291 0.0 1.0 0.00 0.00 0.00 88 1018.1
20260509002158 44 299 0.0 1.0 0.00 0.00 0.00 87 1018.1
20260509001701 44 256 0.0 1.0 0.00 0.00 0.00 87 1018.1
20260509001204 44 312 0.0 1.0 0.00 0.00 0.00 87 1018.1
20260509000707 44 237 0.0 2.0 0.00 0.00 0.00 87 1018.1
20260509000158 44 283 0.0 2.0 0.00 0.00 0.00 87 1018.1
20260508235658 45 303 1.0 2.0 0.00 0.00 0.00 87 1018.1
20260508235204 45 242 0.0 2.0 0.00 0.00 0.00 86 1018.4
20260508234658 45 277 1.0 2.0 0.00 0.00 0.00 86 1018.1
20260508234158 45 273 1.0 2.0 0.00 0.00 0.00 86 1018.1
20260508233701 45 275 1.0 2.0 0.00 0.00 0.00 86 1018.1
20260508233201 45 262 0.0 1.0 0.00 0.00 0.00 86 1018.1
20260508232658 45 262 0.0 2.0 0.00 0.00 0.00 86 1018.1
20260508232158 46 241 0.0 1.0 0.00 0.00 0.00 85 1018.1
20260508231658 46 322 0.0 2.0 0.00 0.00 0.00 85 1018.1
20260508231204 46 299 1.0 1.0 0.00 0.00 0.00 84 1018.1
20260508230701 46 244 0.0 1.0 0.00 0.00 0.00 84 1018.1
20260508230204 46 248 0.0 2.0 0.00 0.00 0.00 84 1018.4
20260508225701 46 300 1.0 2.0 0.00 0.00 0.00 84 1018.4
20260508225158 46 258 0.0 2.0 0.00 0.00 0.00 84 1018.4
20260508224658 47 307 0.0 2.0 0.00 0.00 0.00 83 1018.4
20260508224158 47 266 0.0 1.0 0.00 0.00 0.00 83 1018.4
20260508223658 47 303 0.0 2.0 0.00 0.00 0.00 82 1018.4
20260508223201 47 255 1.0 3.0 0.00 0.00 0.00 82 1018.4
20260508222658 48 236 0.0 3.0 0.00 0.00 0.00 82 1018.4
20260508222158 48 240 0.0 2.0 0.00 0.00 0.00 81 1018.4
20260508221707 48 199 1.0 2.0 0.00 0.00 0.00 82 1018.1
20260508221158 48 205 2.0 3.0 0.00 0.00 0.00 82 1018.1
20260508220658 48 194 1.0 4.0 0.00 0.00 0.00 82 1018.1
20260508220201 48 87 2.0 4.0 0.00 0.00 0.00 81 1018.1
20260508215658 48 30 1.0 3.0 0.00 0.00 0.00 81 1018.1
20260508215201 48 332 0.0 2.0 0.00 0.00 0.00 80 1018.1
20260508214704 48 314 1.0 2.0 0.00 0.00 0.00 80 1018.1
20260508214158 48 269 0.0 2.0 0.00 0.00 0.00 80 1018.1
20260508213707 49 300 0.0 2.0 0.00 0.00 0.00 79 1018.1
20260508213201 49 298 0.0 2.0 0.00 0.00 0.00 79 1018.1
20260508212704 49 291 0.0 1.0 0.00 0.00 0.00 78 1018.1
20260508212201 49 305 0.0 2.0 0.00 0.00 0.00 78 1018.1
20260508211658 49 286 1.0 2.0 0.00 0.00 0.00 77 1018.1
20260508211201 49 293 1.0 3.0 0.00 0.00 0.00 77 1018.1
20260508210658 50 304 1.0 3.0 0.00 0.00 0.00 76 1018.1
20260508210158 50 318 1.0 3.0 0.00 0.00 0.00 76 1018.1
20260508205658 50 315 1.0 2.0 0.00 0.00 0.00 75 1018.1
20260508205204 50 310 1.0 2.0 0.00 0.00 0.00 75 1018.1
20260508204704 50 323 1.0 3.0 0.00 0.00 0.00 75 1018.1
20260508204204 50 318 0.0 2.0 0.00 0.00 0.00 75 1018.1
20260508203701 51 297 0.0 2.0 0.00 0.00 0.00 74 1018.1
20260508203158 51 233 0.0 4.0 0.00 0.00 0.00 74 1018.1
20260508202701 51 338 1.0 6.0 0.00 0.00 0.00 74 1018.1
20260508202158 51 0 2.0 6.0 0.00 0.00 0.00 73 1018.1
20260508201658 51 10 2.0 5.0 0.00 0.00 0.00 73 1017.7
20260508201158 51 14 2.0 6.0 0.00 0.00 0.00 73 1017.7
20260508200658 51 3 3.0 5.0 0.00 0.00 0.00 73 1017.7
20260508200204 51 13 2.0 8.0 0.00 0.00 0.00 72 1017.7
20260508195658 52 11 3.0 10.0 0.00 0.00 0.00 72 1017.7
20260508195201 52 14 3.0 7.0 0.00 0.00 0.00 72 1017.7
20260508194658 52 0 4.0 7.0 0.00 0.00 0.00 71 1017.7
20260508194158 52 32 2.0 6.0 0.00 0.00 0.00 71 1017.7
20260508193704 52 11 3.0 6.0 0.00 0.00 0.00 71 1017.7
20260508193201 52 16 3.0 6.0 0.00 0.00 0.00 70 1017.7
20260508192701 53 17 2.0 8.0 0.00 0.00 0.00 70 1017.7
20260508192201 53 353 1.0 8.0 0.00 0.00 0.00 69 1017.7
20260508191658 53 338 3.0 10.0 0.00 0.00 0.00 69 1017.7
20260508191204 53 351 4.0 10.0 0.00 0.00 0.00 68 1017.7
20260508190658 53 341 4.0 9.0 0.00 0.00 0.00 68 1017.4
20260508190201 53 353 4.0 10.0 0.00 0.00 0.00 67 1017.4
20260508185658 54 11 2.0 10.0 0.00 0.00 0.00 67 1017.4
20260508185201 54 345 3.0 8.0 0.00 0.00 0.00 66 1017.1
20260508184658 54 353 4.0 9.0 0.00 0.00 0.00 66 1017.1
20260508184158 54 352 5.0 10.0 0.00 0.00 0.00 65 1017.1
20260508183658 55 359 4.0 9.0 0.00 0.00 0.00 64 1017.1
20260508183158 55 342 4.0 9.0 0.00 0.00 0.00 63 1017.1
20260508182704 55 347 3.0 9.0 0.00 0.00 0.00 63 1017.1
20260508182158 56 334 2.0 6.0 0.00 0.00 0.00 62 1016.7
20260508181658 56 340 2.0 8.0 0.00 0.00 0.00 62 1016.7
20260508181158 56 339 5.0 11.0 0.00 0.00 0.00 61 1016.7
20260508180658 56 10 2.0 8.0 0.00 0.00 0.00 61 1016.7
20260508180158 56 339 4.0 9.0 0.00 0.00 0.00 60 1016.7
20260508175701 57 14 2.0 8.0 0.00 0.00 0.00 60 1016.7
20260508175158 57 6 2.0 9.0 0.00 0.00 0.00 59 1016.7
20260508174701 57 354 4.0 10.0 0.00 0.00 0.00 59 1016.7
20260508174158 57 22 3.0 11.0 0.00 0.00 0.00 58 1016.7
20260508173704 58 355 1.0 9.0 0.00 0.00 0.00 58 1016.3
20260508173158 58 7 2.0 7.0 0.00 0.00 0.00 58 1016.3
20260508172701 58 4 3.0 8.0 0.00 0.00 0.00 58 1016.3
20260508172158 58 9 4.0 7.0 0.00 0.00 0.00 58 1016.3
20260508171701 58 0 4.0 8.0 0.00 0.00 0.00 57 1016.3
20260508171201 58 330 2.0 7.0 0.00 0.00 0.00 56 1016.3
20260508170658 58 23 2.0 7.0 0.00 0.00 0.00 55 1016.3
20260508170201 59 6 3.0 6.0 0.00 0.00 0.00 54 1016.3
20260508165701 58 341 2.0 7.0 0.00 0.00 0.00 54 1016.3
20260508165201 59 338 3.0 7.0 0.00 0.00 0.00 53 1016.3
20260508164702 59 347 4.0 7.0 0.00 0.00 0.00 54 1016.3
20260508164158 59 346 3.0 7.0 0.00 0.00 0.00 53 1016.3
20260508163701 59 335 1.0 5.0 0.00 0.00 0.00 54 1016.3
20260508163207 59 333 2.0 6.0 0.00 0.00 0.00 53 1016.3
20260508162658 59 344 3.0 6.0 0.00 0.00 0.00 52 1016.3
20260508162204 59 343 3.0 6.0 0.00 0.00 0.00 53 1016.3
20260508161658 59 7 2.0 7.0 0.00 0.00 0.00 53 1016.3
20260508161158 60 323 3.0 8.0 0.00 0.00 0.00 52 1016.3
20260508160658 60 327 1.0 8.0 0.00 0.00 0.00 52 1016.3
20260508160158 60 3 2.0 7.0 0.00 0.00 0.00 50 1016.0
20260508155707 60 345 3.0 6.0 0.00 0.00 0.00 49 1016.0
20260508155201 60 12 2.0 6.0 0.00 0.00 0.00 49 1016.0
20260508154658 62 313 1.0 5.0 0.00 0.00 0.00 49 1016.0
20260508154158 61 9 1.0 5.0 0.00 0.00 0.00 49 1016.3
20260508153658 61 347 2.0 5.0 0.00 0.00 0.00 50 1016.3
20260508153158 60 13 1.0 7.0 0.00 0.00 0.00 52 1016.3
20260508152658 59 324 1.0 7.0 0.00 0.00 0.00 53 1016.3
20260508152201 60 335 2.0 5.0 0.00 0.00 0.00 51 1016.3
20260508151658 60 8 2.0 7.0 0.00 0.00 0.00 50 1016.3
20260508151158 62 58 4.0 7.0 0.00 0.00 0.00 48 1016.3
20260508150702 61 315 2.0 7.0 0.00 0.00 0.00 51 1016.3
20260508150158 61 341 2.0 8.0 0.00 0.00 0.00 49 1016.3
20260508145658 60 348 3.0 8.0 0.00 0.00 0.00 50 1016.3
20260508145201 61 350 4.0 8.0 0.00 0.00 0.00 50 1016.3
20260508144658 60 335 1.0 6.0 0.00 0.00 0.00 51 1016.3
20260508144204 60 7 3.0 6.0 0.00 0.00 0.00 50 1016.3
20260508143658 62 340 1.0 4.0 0.00 0.00 0.00 50 1016.7
20260508143158 62 120 2.0 8.0 0.00 0.00 0.00 50 1016.7
20260508142658 62 130 3.0 5.0 0.00 0.00 0.00 50 1016.7
20260508142204 60 236 1.0 6.0 0.00 0.00 0.00 53 1016.7
20260508141658 59 0 1.0 8.0 0.00 0.00 0.00 51 1016.7
20260508141158 60 13 3.0 6.0 0.00 0.00 0.00 51 1016.7
20260508140658 59 347 1.0 7.0 0.00 0.00 0.00 54 1016.7
20260508140204 59 354 2.0 7.0 0.00 0.00 0.00 54 1016.7
20260508135658 59 342 3.0 6.0 0.00 0.00 0.00 52 1016.7
20260508135158 59 351 2.0 7.0 0.00 0.00 0.00 53 1016.7
20260508134658 60 318 2.0 9.0 0.00 0.00 0.00 52 1016.7
20260508134158 60 341 1.0 7.0 0.00 0.00 0.00 55 1016.7
20260508133658 59 12 3.0 7.0 0.00 0.00 0.00 54 1016.7
20260508133158 58 358 2.0 9.0 0.00 0.00 0.00 56 1016.7
20260508132701 59 7 2.0 7.0 0.00 0.00 0.00 53 1016.7